Hourly Data Report for February 03, 2019

TORONTO INTL A
ONTARIO
Current Station Operator: NAVCAN

43°40'36.000" N
79°37'50.000" W
173.40 m
6158731
71624
YYZ

Download Data

Hourly Data (February 2019)
Hourly Data Report for February 3, 2019
TIME
LST
Temp Definition
°C
Dew Point Definition
°C
Rel Hum Definition
%
Precip. Amount Definition
mm

Wind Dir Definition
10's deg

Wind Spd Definition
km/h
Visibility Definition
km
Stn Press Definition
kPa
Hmdx Definition


Wind Chill Definition


Weather Definition


00:00 0.1 -1.4 90   13 5 1.2 99.58     Freezing Drizzle, Fog
01:00 0.1 -1.2 91   14 5 0.8 99.56     Freezing Drizzle, Fog
02:00 0.1 -1.1 92   14 11 0.2 99.50     Drizzle, Fog
03:00 0.1 -0.9 93   14 11 0.2 99.48     Drizzle, Fog
04:00 0.2 -0.7 93   14 9 0.2 99.42     Drizzle, Fog
05:00 0.6 -0.3 94   14 7 0.8 99.41     Fog
06:00 0.8 -0.1 94   14 9 4.8 99.37     Fog
07:00 1.0 0.2 94   36 1 4.8 99.36     Fog
08:00 1.5 0.7 94   19 11 4.0 99.28     Fog
09:00 2.4 1.5 94   19 14 4.0 99.28     Fog
10:00 3.0 2.0 93   19 8 9.7 99.24     Fog
11:00 4.0 2.8 91   20 7 11.3 99.20     LegendNANA
12:00 5.7 4.1 89   20 16 11.3 99.09     LegendNANA
13:00 6.9 4.6 85   21 14 16.1 99.00     Mostly Cloudy
14:00 7.3 4.0 80   23 29 19.3 98.96     LegendNANA
15:00 7.7 4.2 78   23 23 24.1 98.93     LegendNANA
16:00 6.9 3.5 79   23 9 24.1 98.99     Cloudy
17:00 6.8 3.3 79   26 13 16.1 99.03     LegendNANA
18:00 7.0 3.8 80   20 13 14.5 99.00     LegendNANA
19:00 6.7 3.5 80   24 5 24.1 99.05     Mostly Cloudy
20:00 6.9 3.7 80   24 10 24.1 99.04     LegendNANA
21:00 7.2 4.1 80   23 18 24.1 99.06     LegendNANA
22:00 7.1 3.9 80   23 17 24.1 99.06     Cloudy
23:00 6.8 3.9 82   36 2 24.1 99.11     LegendNANA

Notes on Data Quality.

Legend

  • E = Estimated
  • M = Missing
  • NA = Not Available*
  • [empty] = Indicates an unobserved value
Date modified: